www.pogodaiklimat.ru

Погода и климат >> Архив погоды >> Филиппины >> Тайябас


ПОГОДА в Тайябасе

  • Прогноз погоды в Тайябасе
  • Монитор погоды в Тайябасе

АРХИВ ПОГОДЫ в Тайябасе

Время (UTC), дата Ветер
(напр.,м/с)
 
Видим.   Явления Облачность Т
(С)
Тd
(С)
f
(%)
Тe
(С)
Тes
(С)
Комфортность P
(гПа)
Po
(гПа)
Тmin
(С)
Tmax
(С)
R
(мм)
R24
(мм)
S
(см)
15 14.08 ЮЗ 2 20 км 5/3 540 м
[Cu med, cong Cs]
+28.0 +24.4 81 +39 +39 очень
душно
1008.9 991.4
18 14.08 ЮЗ 2 20 км 4/3 540 м
[Cu med, cong Ac cuf Cs]
+27.6 +22.8 75 +37 +37 очень
душно
1007.6 990.1
21 14.08 штиль 0 20 км 6/3 540 м
[Cu med, cong Ac cuf Cs]
+24.5 +22.5 89 +32 +32 очень
душно
1007.9 990.2
00 15.08 ЮЗ 2 22 км 6/3 600 м
[Cu med, cong Cs]
+29.6 +25.1 77 +43 +47 опасность
перегрева
1008.7 991.1 +24.0
03 15.08 ЮЗ 3 22 км 8/4 600 м
[Cu med, cong Ac As]
+31.8 +26.3 73 +48 +54 опасность
перегрева
1008.0 990.5
06 15.08 штиль 0 50 км ?/? +32.6 +25.4 66 +47 +47 опасность
перегрева
1007.0 989.5
09 15.08 ЮЗ 4 22 км 10/4 600 м
[Cu med, cong Ac und]
+30.0 +24.9 74 +43 +43 опасность
перегрева
1007.1 989.5
12 15.08 З 3 20 км 8/3 540 м
[Cu med, cong Ac cuf Cs]
+28.8 +23.2 72 +39 +39 очень
душно
1008.3 990.8 +34.0
15 15.08 ЮЗ 3 20 км 8/3 540 м
[Cu med, cong Ac cuf Cs]
+28.0 +22.7 73 +37 +37 очень
душно
1009.3 991.8
18 15.08 ЮЗ 2 20 км 6/3 540 м
[Cu med, cong Ac cuf Cs]
+26.6 +23.2 82 +36 +36 очень
душно
1008.4 990.9
21 15.08 штиль 0 20 км 5/3 540 м
[Cu med, cong Ac cuf Cs]
+24.2 +22.6 91 +32 +32 очень
душно
1008.7 991.0
00 16.08 С 2 22 км 5/3 600 м
[Cu med, cong Cs]
+28.5 +25.3 83 +42 +46 опасность
перегрева
1008.7 991.1 +23.5
03 16.08 ЮЗ 4 22 км 6/3 600 м
[Cu med, cong Cs]
+32.8 +25.4 65 +47 +56 опасность
перегрева
1009.1 991.6
06 16.08 ЮЗ 5 22 км 6/3 600 м
[Cu med, cong Cs]
+33.2 +23.5 57 +44 +50 опасность
перегрева
1008.0 990.5
09 16.08 ЮЗ 2
{9}
22 км 8/1 600 м
[Cu med, cong Ac trans Cs]
+30.9 +23.2 64 +41 +42 опасность
перегрева
1007.7 990.1
12 16.08 ЮЗ 2 22 км 6/1 600 м
[Cu med, cong Cs]
+28.0 +23.4 76 +38 +38 очень
душно
1009.1 991.5 +34.5
15 16.08 штиль 0 20 км 1/1 540 м
[Cu med, cong]
+26.0 +23.1 84 +35 +35 очень
душно
1010.7 993.1
18 16.08 штиль 0 20 км 1/1 540 м
[Cu med, cong]
+24.8 +22.6 88 +33 +33 очень
душно
1009.6 992.0
21 16.08 штиль 0 20 км 5/3 540 м
[Cu med, cong Cs]
+24.3 +22.5 90 +32 +32 очень
душно
1009.5 991.8
00 17.08 В 2 22 км 5/3 600 м
[Cu med, cong Cs]
+28.6 +23.9 76 +40 +44 очень
душно
1010.1 992.5 +23.5
03 17.08 В 2 22 км 6/3 600 м
[Cu med, cong Cs]
+32.8 +25.2 64 +47 +60 опасность
перегрева
1009.5 992.5
06 17.08 С 1 22 км 6/4 600 м
[Cu med, cong Ac As]
+32.4 +26.8 72 +50 +59 опасность
перегрева
1008.1 990.5
09 17.08 ЮЗ 1 22 км 8/4 600 м
[Cu med, cong Ac As]
+32.2 +26.7 73 +50 +50 опасность
перегрева
1007.6 990.0
12 17.08 С 1 22 км 8/1 600 м
[Cu med, cong Cs]
+28.5 +23.2 73 +38 +38 очень
душно
1008.2 990.6 +34.0
15 17.08 З 1 22 км 3/3 600 м
[Cu med, cong]
+26.9 +24.7 88 +38 +38 очень
душно
1009.3 991.8
18 17.08 С 1 22 км 5/1 600 м
[Cu med, cong Cs]
+25.9 +23.5 87 +35 +35 очень
душно
1007.9 990.4
21 17.08 СЗ 1 22 км 5/1 600 м
[Cu med, cong Ci sp]
+24.9 +23.1 90 +33 +33 очень
душно
1007.7 990.1
00 18.08 штиль 0 25 км 5/3 600 м
[Cu med, cong Cs]
+28.2 +25.1 83 +41 +47 опасность
перегрева
1009.0 991.4 +24.0
03 18.08 С 2 25 км 4/3 600 м
[Cu med, cong Ac cuf]
+32.4 +25.4 67 +47 +60 опасность
перегрева
1008.8 991.3
06 18.08 Ю 4 25 км 5/3 600 м
[Cu med, cong Ac cuf]
+34.0 +26.0 63 +50 +56 опасность
перегрева
1006.1 988.7
09 18.08 СВ 3 25 км 5/3 600 м
[Cb calv Ac cuf]
+32.7 +26.4 70 +50 +50 опасность
перегрева
1005.6 988.1
12 18.08 З 1 22 км 5/1 600 м
[Cu med, cong Cs]
+28.6 +24.8 80 +41 +41 опасность
перегрева
1008.4 990.8 +35.5
15 18.08 штиль 0 22 км 5/1 600 м
[Cu med, cong Ac trans Ci sp]
+26.8 +24.4 87 +38 +38 очень
душно
1008.6 991.1
18 18.08 З 1 22 км 4/4 600 м
[Cu med, cong]
+25.2 +23.2 89 +34 +34 очень
душно
1007.3 989.8
21 18.08 С 2 22 км 8/1 600 м
[Cu med, cong Ac trans Cs]
+24.6 +22.2 87 +32 +32 очень
душно
1006.5 989.0
00 19.08 штиль 0 25 км 3/3 600 м
[Cu med, cong]
+28.0 +25.1 84 +40 +47 очень
душно
1007.9 990.3 +23.7
03 19.08 Ю 2 25 км 4/3 600 м
[Cu med, cong Ac cuf]
+32.4 +25.4 67 +47 +60 опасность
перегрева
1007.5 990.0
06 19.08 ЮВ 3 18 км слаб. ливневой дождь 8/4 540 м
[Cu med, cong Ac cuf]
+30.4 +27.1 83 +48 +53 опасность
перегрева
1005.9 988.3 0.0
09 19.08 ЮВ 2 20 км {гроза, ливн. осадки} 8/3 540 м
[Cu med, cong Ac As]
+28.8 +26.7 88 +45 +45 опасность
перегрева
1005.6 988.0 20
12 19.08 С 1 22 км {гроза, ливн. осадки} 9/3 600 м
[Cu med, cong Cs]
+27.4 +25.6 90 +40 +40 очень
душно
1008.4 990.8 +34.5 20
15 19.08 С 1 22 км 10/3 600 м
[Cu med, cong Ac und]
+26.6 +25.0 91 +38 +38 очень
душно
1007.9 990.4
18 19.08 СЗ 2 22 км 8/3 600 м
[Cu med, cong Ac As]
+25.4 +24.2 93 +35 +35 очень
душно
1006.4 988.8
21 19.08 З 1 22 км 8/8 600 м
[Sc]
+24.8 +23.3 91 +33 +33 очень
душно
1006.0 988.4
00 20.08 СВ 1 22 км 8/4 600 м
[Cu med, cong Ac As]
+27.0 +25.0 89 +39 +41 очень
душно
1007.4 989.8 +24.0 20
03 20.08 В 2 22 км 5/3 600 м
[Cu med, cong Cs]
+31.8 +27.0 76 +50 +64 опасность
перегрева
1007.0 989.5
06 20.08 С 1 20 км гроза без осадков {ливн. осадки} 9/4 500 м
[Cb cap Ac As]
+29.0 +25.1 80 +42 +47 опасность
перегрева
1005.6 988.0 0.0
09 20.08 СВ 1 20 км осадки на расстоянии {гроза} 10/4 500 м
[Cb cap Ac und]
+28.2 +26.0 88 +42 +43 опасность
перегрева
1006.2 988.5 0.0
12 20.08 ЮЗ 1 20 км {гроза, дождь} 10/4 600 м
[Cu med, cong Ac und]
+26.8 +24.2 86 +37 +37 очень
душно
1007.0 989.4 +31.8 0.0
15 20.08 З 1 20 км 8/1 600 м
[Cu med, cong Cs]
+26.4 +24.0 87 +37 +37 очень
душно
1007.5 990.0
18 20.08 СЗ 1 20 км 8/3 600 м
[Cu med, cong Ac trans]
+24.4 +22.6 90 +32 +32 очень
душно
1005.7 988.1
21 20.08 С 1 20 км 9/4 600 м
[Cu med, cong Ac trans]
+25.2 +23.0 88 +34 +34 очень
душно
1005.8 988.2
00 21.08 ЮВ 1 22 км 8/4 600 м
[Cu med, cong Ac As]
+27.2 +25.0 88 +39 +42 очень
душно
1007.7 990.0 +23.5 0.0
03 21.08 ЮВ 4 22 км 8/4 600 м
[Cu med, cong Ac As]
+30.6 +26.0 77 +46 +51 опасность
перегрева
1007.1 989.5
06 21.08 В 1 22 км 10/4 600 м
[Cu med, cong Ac und]
+31.6 +26.3 74 +48 +52 опасность
перегрева
1005.6 988.0
09 21.08 СВ 1 22 км 10/4 600 м
[Cu med, cong Ac und]
+28.0 +25.4 86 +41 +41 опасность
перегрева
1006.1 988.5

 

Местоположение метеостанции Тайябас (Филиппины): широта 14.03 долгота 121.58 высота над уровнем моря 158 м.

В архиве по умолчанию представлена погода в Тайябасе за последнюю неделю. Архивные данные за месяц целиком и за предыдущие месяцы, начиная с января 2011 года, Вы можете получить, выбрав интересующий диапазон дат из раскрывающегося списка и нажав кнопку "Ввод!".


*Определитесь, кто Вы:
робот инопланетянин человек

Внимание! Время в таблицах - всемирное. Для получения местного времени необходимо прибавить поправку, которая равна 8 ч.

Смотрите также архив погоды в соседних городах и на ближайших метеорологических станциях:

Погода на Алабате (Филиппины) (47 км)
Погода на Амбулонге (Филиппины) (57 км)
Погода в Танае (Филиппины) (58 км)
Погода в Инфанте (Филиппины) (80 км)
Погода в Калапане (Филиппины) (80 км)
Погода в Аэропорту Ninoy Aquino (Филиппины) (83 км)
Погода в Маниле (Филиппины) (89 км)
Погода в Сангли Пойнт (Филиппины) (89 км)
Погода в Научном саду (Филиппины) (91 км)
Погода в Даете (Филиппины) (151 км)

Пояснения к столбцам:

Ветер - указаны скорость ветра в м/с - средняя за 10 мин, порывы в срок и между сроками (в фигурных скобках) и направление, откуда дует ветер: С - северный, СВ - северо-восточный, В - восточный, ЮВ - юго-восточный, Ю - южный, ЮЗ - юго-западный, З - западный, СЗ - северо-западный.
Видимость - горизонтальная дальность видимости в метрах или километрах. При видимости от 1 до 10 км при отсутствии осадков обычно наблюдается дымка, при ухудшении видимости до 1 км и менее - туман. В сухую погоду видимость может ухудшаться дымом, пылью или мглою.
Явления - указаны атмосферные явления, наблюдавшиеся в срок или в последний час перед сроком; фигурными скобками обозначены явления, наблюдавшиеся между сроками (за 1-3 часа до срока); квадратными скобками обозначены град или гололедные отложения с указанием их диаметра в мм.
Облачность - указаны через наклонную черту общая и нижняя облачность в баллах и высота нижней границы облаков в метрах; квадратными скобками обозначены формы облаков: Ci - перистые, Cs - перисто-слоистые, Cc - перисто-кучевые, Ac - высококучевые, As - высокослоистые, Sc - слоисто-кучевые, Ns - слоисто-дождевые, Cu - кучевые, Cb - кучево-дождевые. Подробнее классификацию облаков см. в Атласе облаков (PDF).
T - Температура воздуха - температура, измеренная на высоте 2 м над землей.
Td - Температура точки росы - температура, при понижении до которой содержащийся в воздухе водяной пар достигнет насыщения.
f - Относительная влажность воздуха - влажноcть воздуха, измеренная на высоте 2 м над землей.
Te - Эффективная температура - температура, которую ощущает одетый по сезону человек в тени. Характеристика душности погоды. При расчете учитывается влияние влажности воздуха и скорости ветра на теплоощущения человека.
Tes - Эффективная температура на солнце - температура, которую ощущает человек, с поправкой на солнечный нагрев. Характеристика знойности погоды. Зависит от высоты солнца над горизонтом, облачности и скорости ветра. Ночью, в пасмурную погоду, а также при ветре 12 м/с и более поправка равна нулю.
P - Атмосферное давление - приведенное к уровню моря атмосферное давление.
Po - Атмосферное давление - измеренное на уровне метеостанции атмосферное давление.
Tmin - Минимальная температура - минимум температуры воздуха на высоте 2 м над землей.
Tmax - Максимальная температура - максимум температуры воздуха на высоте 2 м над землей.
R - Количество осадков - Количество выпавших осадков за период времени, мм. При наведении курсора мыши на число - период времени, за который выпало указанное количество осадков.
R24 - Количество осадков - Количество выпавших осадков за 24 часа, мм.
S - Снежный покров - Высота снежного покрова, см. При наведении курсора мыши на число - состояние снежного покрова и степень покрытия местности в баллах.